Вернуться в каталог

AMSAT OSCAR 40

АктивенЛюбительское радиоHEO
NORAD 26609·PAYLOAD·🇩🇪 Germany

Запущен Nov 16, 2000 с Guiana Space Centre

Loading…

Ближайшие Пролёты (ближайшие 24 часа)

TLE

СвежийSource: Space-Track

Эпоха: Sep 14, 2026, 06:20 UTC

1 26609U 00072B   26257.26449315 -.00000386  00000-0  00000-0 0  9996
2 26609   9.3303 336.7311 7938423 206.8156  65.9979  1.25589051118631

Отслеживайте AMSAT OSCAR 40 в реальном времени с AllMySat

Download on the App Store